Regional Weather Roundup
Issued by NWS Memphis, TN

Home | Current Version | Previous Version | Text Only | Print | Product List | Glossary On
Versions: 1 2 3 4 5 6 7 8 9 10 11 12 13 14 15 16 17 18 19 20 21 22 23 24 25 26 27 28 29 30 31 32 33 34 35 36 37 38 39 40 41 42 43 44 45 46 47 48 49 50
000
ASUS44 KMEG 221610
RWRMEG
MEMPHIS CWA HOURLY WEATHER ROUNDUP
NATIONAL WEATHER SERVICE MEMPHIS TN
1100 AM CDT WED OCT 22 2014

...WEST TENNESSEE...

CITY           SKY/WX    TMP DP  RH WIND       PRES   REMARKS
MEMPHIS INTL   SUNNY     62  40  44 E12       30.26R
NWS MEMPHIS      N/A     59 N/A N/A MISG        N/A
JACKSON        SUNNY     60  44  55 NE9       30.27S
LEXINGTON      SUNNY     57  41  54 NE8       30.26S
SAVANNAH       SUNNY     59  45  58 NE9       30.26R
DYERSBURG      SUNNY     57  39  51 NE6       30.30S
UNION CITY     SUNNY     55  45  67 NE8       30.28S
PARIS          SUNNY     54  43  66 NE8       30.29S


...EASTERN ARKANSAS...

CITY           SKY/WX    TMP DP  RH WIND       PRES   REMARKS
JONESBORO      SUNNY     60  43  53 E10       30.27F
WEST MEMPHIS   SUNNY     62  42  47 E12       30.25R
BATESVILLE     SUNNY     61  45  55 E8        30.28S
NEWPORT        SUNNY     62  45  53 E8        30.29S
WALNUT RIDGE   SUNNY     59  37  44 E8        30.29S
BLYTHEVILLE    SUNNY     62  45  53 E10       30.29R
NW BLYTHEVILLE SUNNY     59 N/A N/A E6        30.39R
SEARCY         SUNNY     62  48  60 E6        30.28S
STUTTGART      SUNNY     63  46  55 E9        30.26S
PINE BLUFF     SUNNY     64  49  57 E8        30.24R
MONTICELLO     SUNNY     65  52  62 VRB6      30.22R


...NORTH MISSISSIPPI...

CITY           SKY/WX    TMP DP  RH WIND       PRES   REMARKS
TUPELO         SUNNY     61  41  47 E13       30.23S
OXFORD         SUNNY     59  41  51 E9        30.25S
OLIVE BRANCH   SUNNY     57  43  58 E10       30.26R
TUNICA         SUNNY     63  45  51 NE9       30.26R
CLARKSDALE     SUNNY     63  48  59 NE10      30.24F
CORINTH        SUNNY     59  41  51 NE14      30.25S
GRENADA          N/A    N/A N/A N/A MISG        N/A
GREENWOOD        N/A    N/A N/A N/A MISG      30.21R
COLUMBUS       SUNNY     62  42  48 E9        30.21S
STARKVILLE     FAIR      63  45  51 NE10      30.20S
GOLDEN TRIANGL SUNNY     63  43  48 NE10      30.20S


...SOUTHEAST MISSOURI...

CITY           SKY/WX    TMP DP  RH WIND       PRES   REMARKS
WEST PLAINS    MOSUNNY   56  42  59 SE6       30.30S
POPLAR BLUFF   SUNNY     57  44  62 NE6       30.30R
CAPE GIRARDEAU SUNNY     58  46  64 NE3       30.31R


...NORTHWEST ALABAMA...

CITY           SKY/WX    TMP DP  RH WIND       PRES   REMARKS
MUSCLE SHOALS  SUNNY     61  40  45 NE7G16    30.24S


...MIDDLE TENNESSEE...

CITY           SKY/WX    TMP DP  RH WIND       PRES   REMARKS
NASHVILLE      MOSUNNY   57  41  55 NE13G18   30.27R
CLARKSVILLE    SUNNY     55  41  59 NE8       30.29S
COLUMBIA       SUNNY     55  45  67 NE12      30.24S


...WESTERN KENTUCKY...

CITY           SKY/WX    TMP DP  RH WIND       PRES   REMARKS
PADUCAH        SUNNY     56  43  61 E10       30.31R
FORT CAMPBELL  SUNNY     56  43  62 NE8       30.28F


...CENTRAL ARKANSAS...

CITY           SKY/WX    TMP DP  RH WIND       PRES   REMARKS
LITTLE ROCK    SUNNY     64  47  53 NE6       30.26R


SKY/WX REPORTED AS FAIR MEANS FEW OR NO CLOUDS BELOW
12 THOUSAND FEET.




USA.gov is the U.S. government's official web portal to all federal, state and local government web resources and services.